Location: Keewatin
(47.4004°N, 93.0827°W)
Time: 01:29:25
(UTC+00:00)

Envisat - Pass Details

Date: 14 December 2019
Orbit: 764 x 766 km, 98.1° (Epoch: 23 January)

Event Time Altitude Azimuth Distance (km) Brightness Sun altitude
Rises 23:28:51 0° 149° (SSE) 3,222 6.1 -10.8°
Reaches altitude 10° 23:31:12 10° 144° (SE) 2,300 5.3 -11.2°
Maximum altitude 23:36:05 50° 70° (ENE) 970 3.1 -11.9°
Drops below altitude 10° 23:41:00 10° 356° (N) 2,316 5.3 -12.7°
Sets 23:43:22 0° 351° (N) 3,246 6.1 -13.1°
